,,Stat6,,Stat2,,Stat8,,Stat9,,Stat10,,Wind1,,Wind1,
time,status,PA1M_AVG,status,PR1M_SUM,status,RH1M_AVG,status,SR1M_AVG,status,TA1M_AVG,status,W1dAve1m,status,W1sAve1m,
2004-12-17, 00:00:00,VALID,917.747,VALID,0,VALID,95.8027,VALID,-0.0169808,VALID,20.257,VALID,103,VALID,0.711458,
2004-12-17, 00:01:00,VALID,917.73,VALID,0,VALID,95.7671,VALID,-0.0339617,VALID,20.2575,VALID,122,VALID,1.04297,
2004-12-17, 00:02:00,VALID,917.714,VALID,0,VALID,95.6666,VALID,-0.0339617,VALID,20.2535,VALID,99,VALID,1.49237,
2004-12-17, 00:03:00,VALID,917.713,VALID,0,VALID,95.4568,VALID,0,VALID,20.2664,VALID,102,VALID,1.1423,
2004-12-17, 00:04:00,VALID,917.702,VALID,0,VALID,95.3602,VALID,0.0339617,VALID,20.2694,VALID,107,VALID,0.810826,
2004-12-17, 00:05:00,VALID,917.7,VALID,0,VALID,95.2979,VALID,0,VALID,20.2866,VALID,115,VALID,0.779297,
2004-12-17, 00:06:00,VALID,917.699,VALID,0,VALID,95.3347,VALID,0.0339617,VALID,20.2729,VALID,103,VALID,0.441406,
2004-12-17, 00:07:00,VALID,917.717,VALID,0,VALID,95.3398,VALID,0,VALID,20.2498,VALID,82,VALID,0.656977,
2004-12-17, 00:08:00,VALID,917.739,VALID,0,VALID,95.4873,VALID,0.0339617,VALID,20.221,VALID,96,VALID,0.676599,
2004-12-17, 00:09:00,VALID,917.73,VALID,0,VALID,95.7391,VALID,0.0339617,VALID,20.2083,VALID,124,VALID,0.929332,
2004-12-17, 00:10:00,VALID,917.736,VALID,0,VALID,95.7137,VALID,0.0169808,VALID,20.1852,VALID,126,VALID,1.10298,
2004-12-17, 00:11:00,VALID,917.74,VALID,0,VALID,95.5865,VALID,0.0679233,VALID,20.1994,VALID,102,VALID,0.596742,
2004-12-17, 00:12:00,VALID,917.729,VALID,0,VALID,95.5115,VALID,0.0339617,VALID,20.1728,VALID,56,VALID,0.502544,
2004-12-17, 00:13:00,VALID,917.714,VALID,0,VALID,95.6285,VALID,0.0509425,VALID,20.1434,VALID,82,VALID,0.263393,
2004-12-17, 00:14:00,VALID,917.697,VALID,0,VALID,95.7124,VALID,0.0339617,VALID,20.1305,VALID,126,VALID,0.266715,
2004-12-17, 00:15:00,VALID,917.691,VALID,0,VALID,95.7798,VALID,0.0339617,VALID,20.1079,VALID,148,VALID,0.629724,
2004-12-17, 00:16:00,VALID,917.687,VALID,0,VALID,95.7518,VALID,0.0169808,VALID,20.095,VALID,134,VALID,0.386446,
2004-12-17, 00:17:00,VALID,917.671,VALID,0,VALID,95.6463,VALID,0.0169808,VALID,20.0754,VALID,122,VALID,0.18936,
2004-12-17, 00:18:00,VALID,917.682,VALID,0,VALID,95.6895,VALID,-0.0849042,VALID,20.0734,VALID,130,VALID,0.193979,
2004-12-17, 00:19:00,VALID,917.661,VALID,0,VALID,95.6984,VALID,-0.0679233,VALID,20.0871,VALID,122,VALID,0.224609,
2004-12-17, 00:20:00,VALID,917.659,VALID,0,VALID,95.5407,VALID,-0.0509425,VALID,20.0836,VALID,89,VALID,0.305432,
2004-12-17, 00:21:00,VALID,917.633,VALID,0,VALID,95.3767,VALID,-0.0849042,VALID,20.0739,VALID,86,VALID,0.148619,
2004-12-17, 00:22:00,VALID,917.626,VALID,0,VALID,95.3678,VALID,-0.0339617,VALID,20.0481,VALID,85,VALID,0.542783,
2004-12-17, 00:23:00,VALID,917.599,VALID,0,VALID,95.4555,VALID,-0.0849042,VALID,20.0292,VALID,74,VALID,0.64226,
2004-12-17, 00:24:00,VALID,917.578,VALID,0,VALID,95.439,VALID,-0.101885,VALID,19.9907,VALID,64,VALID,0.665365,
2004-12-17, 00:25:00,VALID,917.544,VALID,0,VALID,95.7417,VALID,-0.101885,VALID,19.9293,VALID,61,VALID,1.0002,
2004-12-17, 00:26:00,VALID,917.513,VALID,0,VALID,96.3151,VALID,-0.0849042,VALID,19.8965,VALID,68,VALID,1.17264,
2004-12-17, 00:27:00,VALID,917.483,VALID,0,VALID,96.2732,VALID,-0.0849042,VALID,19.8766,VALID,56,VALID,1.02184,
2004-12-17, 00:28:00,VALID,917.467,VALID,0,VALID,96.4639,VALID,-0.101885,VALID,19.854,VALID,48,VALID,1.05599,
2004-12-17, 00:29:00,VALID,917.466,VALID,0,VALID,96.338,VALID,-0.0849042,VALID,19.8389,VALID,39,VALID,0.753711,
2004-12-17, 00:30:00,VALID,917.458,VALID,0,VALID,96.7195,VALID,-0.101885,VALID,19.7767,VALID,48,VALID,0.683239,
2004-12-17, 00:31:00,VALID,917.476,VALID,0,VALID,97.2421,VALID,-0.0849042,VALID,19.771,VALID,48,VALID,0.553961,
2004-12-17, 00:32:00,VALID,917.493,VALID,0,VALID,97.5931,VALID,-0.101885,VALID,19.784,VALID,48,VALID,0.504464,
2004-12-17, 00:33:00,VALID,917.506,VALID,0,VALID,97.5079,VALID,-0.0679233,VALID,19.774,VALID,48,VALID,0,
2004-12-17, 00:34:00,VALID,917.525,VALID,0,VALID,97.4774,VALID,-0.0679233,VALID,19.7673,VALID,48,VALID,0,
2004-12-17, 00:35:00,VALID,917.551,VALID,0,VALID,97.3172,VALID,-0.101885,VALID,19.7613,VALID,48,VALID,0.025436,
2004-12-17, 00:36:00,VALID,917.559,VALID,0,VALID,97.2854,VALID,-0.0849042,VALID,19.7417,VALID,48,VALID,0,
2004-12-17, 00:37:00,VALID,917.573,VALID,0,VALID,96.9929,VALID,-0.101885,VALID,19.7124,VALID,48,VALID,0,
2004-12-17, 00:38:00,VALID,917.583,VALID,0,VALID,96.3584,VALID,-0.0679233,VALID,19.6518,VALID,48,VALID,0,
2004-12-17, 00:39:00,VALID,917.573,VALID,0,VALID,96.7157,VALID,-0.101885,VALID,19.5961,VALID,48,VALID,0,
2004-12-17, 00:40:00,VALID,917.558,VALID,0,VALID,97.1226,VALID,-0.101885,VALID,19.5837,VALID,48,VALID,0,
2004-12-17, 00:41:00,VALID,917.536,VALID,0,VALID,97.2409,VALID,-0.101885,VALID,19.5681,VALID,48,VALID,0,
2004-12-17, 00:42:00,VALID,917.53,VALID,0,VALID,97.293,VALID,-0.0849042,VALID,19.5452,VALID,48,VALID,0,
2004-12-17, 00:43:00,VALID,917.503,VALID,0,VALID,97.3553,VALID,-0.0849042,VALID,19.5194,VALID,48,VALID,0,
2004-12-17, 00:44:00,VALID,917.488,VALID,0,VALID,97.368,VALID,-0.101885,VALID,19.4868,VALID,48,VALID,0.0139101,
2004-12-17, 00:45:00,VALID,917.486,VALID,0,VALID,97.541,VALID,-0.0849042,VALID,19.4647,VALID,49,VALID,0.319222,
2004-12-17, 00:46:00,VALID,917.467,VALID,0,VALID,97.8131,VALID,-0.118866,VALID,19.4481,VALID,51,VALID,0.0890997,
2004-12-17, 00:47:00,VALID,917.443,VALID,0,VALID,97.9809,VALID,-0.101885,VALID,19.4518,VALID,51,VALID,0.0652253,
2004-12-17, 00:48:00,VALID,917.417,VALID,0,VALID,98.2187,VALID,0.0169808,VALID,19.4404,VALID,77,VALID,0.241616,
2004-12-17, 00:49:00,VALID,917.382,VALID,0,VALID,98.5773,VALID,0,VALID,19.4796,VALID,200,VALID,0.799162,
2004-12-17, 00:50:00,VALID,917.35,VALID,0,VALID,98.7503,VALID,0.0169808,VALID,19.505,VALID,201,VALID,0.400484,
2004-12-17, 00:51:00,VALID,917.323,VALID,0,VALID,98.3128,VALID,0,VALID,19.4983,VALID,194,VALID,0.197222,
2004-12-17, 00:52:00,VALID,917.301,VALID,0,VALID,97.9301,VALID,0,VALID,19.4533,VALID,188,VALID,0.377404,
2004-12-17, 00:53:00,VALID,917.271,VALID,0,VALID,98.1081,VALID,0.0339617,VALID,19.4275,VALID,183,VALID,0.369048,
2004-12-17, 00:54:00,VALID,917.261,VALID,0,VALID,98.3395,VALID,0,VALID,19.3984,VALID,140,VALID,0.571023,
2004-12-17, 00:55:00,VALID,917.251,VALID,0,VALID,98.7426,VALID,0,VALID,19.3818,VALID,123,VALID,0.639535,
2004-12-17, 00:56:00,VALID,917.252,VALID,0,VALID,98.913,VALID,0,VALID,19.3882,VALID,112,VALID,0.714674,
2004-12-17, 00:57:01,VALID,917.23,VALID,0,VALID,98.824,VALID,0.0339617,VALID,19.3698,VALID,94,VALID,1.03711,
2004-12-17, 00:58:01,VALID,917.222,VALID,0,VALID,98.796,VALID,0,VALID,19.3437,VALID,100,VALID,1.1566,
2004-12-17, 00:59:00,VALID,917.193,VALID,0,VALID,98.8062,VALID,-0.0169808,VALID,19.3147,VALID,97,VALID,0.952148,
2004-12-17, 01:00:00,VALID,917.188,VALID,0,VALID,99.1127,VALID,0,VALID,19.3082,VALID,100,VALID,1.08017,
2004-12-17, 01:01:01,VALID,917.177,VALID,0,VALID,99.0389,VALID,0,VALID,19.3022,VALID,100,VALID,0.942951,
2004-12-17, 01:02:00,VALID,917.166,VALID,0,VALID,99.1012,VALID,0,VALID,19.2854,VALID,103,VALID,0.994913,
2004-12-17, 01:03:00,VALID,917.169,VALID,0,VALID,99.0644,VALID,0,VALID,19.2593,VALID,104,VALID,0.802689,
2004-12-17, 01:04:00,VALID,917.181,VALID,0,VALID,99.1928,VALID,0,VALID,19.2565,VALID,125,VALID,1.09412,
2004-12-17, 01:05:01,VALID,917.171,VALID,0,VALID,99.4395,VALID,-0.0169808,VALID,19.2312,VALID,137,VALID,0.702123,
2004-12-17, 01:06:01,VALID,917.162,VALID,0,VALID,99.6035,VALID,0.0169808,VALID,19.2148,VALID,114,VALID,0.619048,
2004-12-17, 01:07:01,VALID,917.157,VALID,0,VALID,99.7256,VALID,0.0339617,VALID,19.192,VALID,122,VALID,0.96689,
2004-12-17, 01:08:00,VALID,917.162,VALID,0,VALID,99.8553,VALID,-0.0169808,VALID,19.1569,VALID,84,VALID,1.17714,
2004-12-17, 01:09:00,VALID,917.143,VALID,0,VALID,99.9929,VALID,-0.0169808,VALID,19.1145,VALID,91,VALID,0.739169,
2004-12-17, 01:10:00,VALID,917.131,VALID,0,VALID,100,VALID,0,VALID,19.0695,VALID,96,VALID,0.735937,
2004-12-17, 01:11:01,VALID,917.125,VALID,0,VALID,100,VALID,0,VALID,19.0305,VALID,83,VALID,0.449123,
2004-12-17, 01:12:00,VALID,917.134,VALID,0,VALID,100,VALID,-0.0169808,VALID,19.0178,VALID,94,VALID,0.609566,
2004-12-17, 01:13:00,VALID,917.121,VALID,0,VALID,100,VALID,0.0169808,VALID,19.0243,VALID,117,VALID,0.706445,
2004-12-17, 01:14:00,VALID,917.118,VALID,0,VALID,100,VALID,0,VALID,19.034,VALID,78,VALID,0.787674,
2004-12-17, 01:15:00,VALID,917.118,VALID,0,VALID,100,VALID,-0.0339617,VALID,19.0183,VALID,95,VALID,1.03163,
2004-12-17, 01:16:00,VALID,917.113,VALID,0,VALID,100,VALID,0,VALID,19.0273,VALID,100,VALID,1.13523,
2004-12-17, 01:17:00,VALID,917.096,VALID,0,VALID,100,VALID,0,VALID,19.0566,VALID,107,VALID,0.966933,
2004-12-17, 01:18:00,VALID,917.096,VALID,0,VALID,100,VALID,-0.0169808,VALID,19.0767,VALID,115,VALID,1.16897,
2004-12-17, 01:19:00,VALID,917.095,VALID,0,VALID,100,VALID,0,VALID,19.0953,VALID,129,VALID,0.917302,
2004-12-17, 01:20:00,VALID,917.09,VALID,0,VALID,100,VALID,0,VALID,19.1309,VALID,107,VALID,0.937322,
2004-12-17, 01:21:00,VALID,917.111,VALID,0,VALID,100,VALID,0,VALID,19.1661,VALID,107,VALID,0.80907,
2004-12-17, 01:22:01,VALID,917.113,VALID,0,VALID,100,VALID,0,VALID,19.1989,VALID,125,VALID,0.925249,
2004-12-17, 01:23:00,VALID,917.117,VALID,0,VALID,100,VALID,0,VALID,19.2275,VALID,122,VALID,1.07958,
2004-12-17, 01:24:01,VALID,917.122,VALID,0,VALID,100,VALID,0,VALID,19.2531,VALID,161,VALID,0.510789,
2004-12-17, 01:25:01,VALID,917.109,VALID,0,VALID,100,VALID,0.0339617,VALID,19.2754,VALID,148,VALID,0.851207,
2004-12-17, 01:26:01,VALID,917.104,VALID,0,VALID,99.9901,VALID,0.0169808,VALID,19.3278,VALID,150,VALID,0.51726,
2004-12-17, 01:27:01,VALID,917.081,VALID,0,VALID,99.8299,VALID,0,VALID,19.3442,VALID,147,VALID,0.00181686,
2004-12-17, 01:28:00,VALID,917.072,VALID,0,VALID,99.6938,VALID,0,VALID,19.3477,VALID,141,VALID,0.347384,
2004-12-17, 01:29:00,VALID,917.048,VALID,0,VALID,99.5768,VALID,-0.0169808,VALID,19.344,VALID,109,VALID,0.372093,
2004-12-17, 01:30:00,VALID,917.021,VALID,0,VALID,99.4191,VALID,0.0169808,VALID,19.3539,VALID,112,VALID,0.421494,
2004-12-17, 01:31:01,VALID,917,VALID,0,VALID,99.2932,VALID,0.0169808,VALID,19.3537,VALID,115,VALID,0.674893,
2004-12-17, 01:32:00,VALID,916.992,VALID,0,VALID,99.1737,VALID,0,VALID,19.3534,VALID,117,VALID,0.988867,
2004-12-17, 01:33:00,VALID,916.988,VALID,0,VALID,99.1038,VALID,0.0169808,VALID,19.3567,VALID,131,VALID,0.902158,
2004-12-17, 01:34:01,VALID,916.991,VALID,0,VALID,98.9079,VALID,0,VALID,19.3437,VALID,133,VALID,0.888139,
2004-12-17, 01:35:00,VALID,916.986,VALID,0,VALID,98.6625,VALID,0.0339617,VALID,19.3211,VALID,131,VALID,0.84933,
2004-12-17, 01:36:00,VALID,917.002,VALID,0,VALID,98.6943,VALID,0.0169808,VALID,19.3052,VALID,152,VALID,1.15978,
2004-12-17, 01:37:00,VALID,916.997,VALID,0,VALID,98.7541,VALID,0.0339617,VALID,19.302,VALID,152,VALID,1.25449,
2004-12-17, 01:38:01,VALID,916.991,VALID,0,VALID,98.8291,VALID,0,VALID,19.2985,VALID,156,VALID,1.33477,
2004-12-17, 01:39:01,VALID,916.97,VALID,0,VALID,98.9232,VALID,0,VALID,19.3283,VALID,152,VALID,1.27039,
2004-12-17, 01:40:01,VALID,916.952,VALID,0,VALID,98.9245,VALID,0.0339617,VALID,19.3211,VALID,143,VALID,1.08358,
2004-12-17, 01:41:00,VALID,916.929,VALID,0,VALID,98.8342,VALID,0,VALID,19.3211,VALID,143,VALID,0.945685,
2004-12-17, 01:42:01,VALID,916.916,VALID,0,VALID,98.7655,VALID,-0.0169808,VALID,19.3112,VALID,147,VALID,0.971058,
2004-12-17, 01:43:00,VALID,916.904,VALID,0,VALID,98.7019,VALID,0,VALID,19.3278,VALID,132,VALID,0.917014,
2004-12-17, 01:44:01,VALID,916.916,VALID,0,VALID,98.515,VALID,0,VALID,19.3249,VALID,142,VALID,0.884233,
2004-12-17, 01:45:00,VALID,916.917,VALID,0,VALID,98.5201,VALID,0,VALID,19.3246,VALID,150,VALID,1.38523,
2004-12-17, 01:46:00,VALID,916.94,VALID,0,VALID,98.3739,VALID,0,VALID,19.3475,VALID,151,VALID,0.847384,
2004-12-17, 01:47:01,VALID,916.951,VALID,0,VALID,98.2747,VALID,0,VALID,19.3634,VALID,158,VALID,0.933308,
2004-12-17, 01:48:00,VALID,916.986,VALID,0,VALID,98.1488,VALID,0,VALID,19.3927,VALID,157,VALID,1.35013,
2004-12-17, 01:49:01,VALID,916.992,VALID,0,VALID,97.9619,VALID,0.0169808,VALID,19.4215,VALID,151,VALID,1.06925,
2004-12-17, 01:50:00,VALID,917.005,VALID,0,VALID,97.7343,VALID,0.0169808,VALID,19.4506,VALID,150,VALID,1.18521,
2004-12-17, 01:51:00,VALID,917.001,VALID,0,VALID,97.6147,VALID,0.0679233,VALID,19.4637,VALID,157,VALID,1.45948,
2004-12-17, 01:52:00,VALID,916.991,VALID,0,VALID,97.5054,VALID,0,VALID,19.4732,VALID,151,VALID,1.21302,
2004-12-17, 01:53:00,VALID,916.975,VALID,0,VALID,97.5054,VALID,0.0509425,VALID,19.4801,VALID,146,VALID,1.25495,
2004-12-17, 01:54:01,VALID,916.969,VALID,0,VALID,97.4342,VALID,0,VALID,19.4898,VALID,149,VALID,1.08867,
2004-12-17, 01:55:00,VALID,916.977,VALID,0,VALID,97.3744,VALID,0,VALID,19.4831,VALID,141,VALID,0.926781,
2004-12-17, 01:56:00,VALID,916.986,VALID,0,VALID,97.2739,VALID,0,VALID,19.4602,VALID,138,VALID,0.651042,
2004-12-17, 01:57:00,VALID,916.985,VALID,0,VALID,97.2116,VALID,0.0679233,VALID,19.4342,VALID,131,VALID,0.947856,
2004-12-17, 01:58:01,VALID,916.995,VALID,0,VALID,96.8886,VALID,0,VALID,19.4247,VALID,116,VALID,0.41847,
2004-12-17, 01:59:00,VALID,917.002,VALID,0,VALID,96.7208,VALID,0.0339617,VALID,19.3892,VALID,87,VALID,0.476017,
2004-12-17, 02:00:00,VALID,917.001,VALID,0,VALID,96.8009,VALID,0,VALID,19.3571,VALID,81,VALID,0.352983,
2004-12-17, 02:01:00,VALID,916.996,VALID,0,VALID,97.0565,VALID,0.0339617,VALID,19.3348,VALID,120,VALID,0.447545,
2004-12-17, 02:02:00,VALID,916.999,VALID,0,VALID,97.0629,VALID,-0.0169808,VALID,19.3149,VALID,128,VALID,0.700452,
2004-12-17, 02:03:01,VALID,917.002,VALID,0,VALID,97.0361,VALID,0,VALID,19.3055,VALID,134,VALID,0.531424,
2004-12-17, 02:04:00,VALID,916.997,VALID,0,VALID,97.0578,VALID,0.0339617,VALID,19.2923,VALID,154,VALID,0.522675,
2004-12-17, 02:05:00,VALID,917.005,VALID,0,VALID,97.1074,VALID,0.0169808,VALID,19.2935,VALID,103,VALID,0.656795,
2004-12-17, 02:06:00,VALID,917.002,VALID,0,VALID,97.2294,VALID,0.0169808,VALID,19.2727,VALID,117,VALID,0.433222,
2004-12-17, 02:07:00,VALID,916.997,VALID,0,VALID,97.1608,VALID,0,VALID,19.2801,VALID,118,VALID,0.0612847,
2004-12-17, 02:08:00,VALID,916.998,VALID,0,VALID,97.0209,VALID,0.0339617,VALID,19.2473,VALID,118,VALID,0.188262,
2004-12-17, 02:09:00,VALID,916.986,VALID,0,VALID,97.0094,VALID,0,VALID,19.2245,VALID,49,VALID,0.309722,
2004-12-17, 02:10:00,VALID,916.979,VALID,0,VALID,97.0667,VALID,0.0169808,VALID,19.2121,VALID,32,VALID,0.0978516,
2004-12-17, 02:11:00,VALID,916.982,VALID,0,VALID,97.129,VALID,0,VALID,19.1922,VALID,33,VALID,0.355097,
2004-12-17, 02:12:01,VALID,916.992,VALID,0,VALID,97.1175,VALID,0,VALID,19.1634,VALID,32,VALID,0.536014,
2004-12-17, 02:13:00,VALID,916.984,VALID,0,VALID,97.3718,VALID,0,VALID,19.1281,VALID,31,VALID,0.50744,
2004-12-17, 02:14:00,VALID,916.992,VALID,0,VALID,97.6058,VALID,0,VALID,19.099,VALID,31,VALID,0.219512,
2004-12-17, 02:15:01,VALID,916.993,VALID,0,VALID,97.6961,VALID,0,VALID,19.0697,VALID,31,VALID,0.03125,
2004-12-17, 02:16:00,VALID,916.991,VALID,0,VALID,97.7788,VALID,0,VALID,19.0536,VALID,31,VALID,0.0365767,
2004-12-17, 02:17:00,VALID,916.975,VALID,0,VALID,97.869,VALID,0,VALID,19.0211,VALID,41,VALID,0.254616,
2004-12-17, 02:18:00,VALID,916.966,VALID,0,VALID,98.103,VALID,0,VALID,19.0317,VALID,100,VALID,0.416066,
2004-12-17, 02:19:00,VALID,916.955,VALID,0,VALID,98.1119,VALID,0.0169808,VALID,19.0049,VALID,59,VALID,0.695676,
2004-12-17, 02:20:00,VALID,916.951,VALID,0,VALID,98.2416,VALID,0.0169808,VALID,19.0186,VALID,36,VALID,0.846701,
2004-12-17, 02:21:00,VALID,916.935,VALID,0,VALID,97.9263,VALID,0.0339617,VALID,18.9761,VALID,35,VALID,0.990282,
2004-12-17, 02:22:00,VALID,916.934,VALID,0,VALID,98.1196,VALID,0.0339617,VALID,18.9445,VALID,39,VALID,0.925495,
2004-12-17, 02:23:00,VALID,916.94,VALID,0,VALID,98.3662,VALID,0.0169808,VALID,18.9247,VALID,37,VALID,0.705543,
2004-12-17, 02:24:01,VALID,916.951,VALID,0,VALID,98.4031,VALID,0,VALID,18.8921,VALID,35,VALID,0.814732,
2004-12-17, 02:25:00,VALID,916.951,VALID,0,VALID,98.6155,VALID,-0.0169808,VALID,18.8924,VALID,32,VALID,0.848722,
2004-12-17, 02:26:00,VALID,916.955,VALID,0,VALID,98.6447,VALID,0.0169808,VALID,18.9053,VALID,28,VALID,1.14026,
2004-12-17, 02:27:01,VALID,916.946,VALID,0,VALID,98.5583,VALID,-0.0169808,VALID,18.9092,VALID,40,VALID,0.95149,
2004-12-17, 02:28:00,VALID,916.934,VALID,0,VALID,98.3014,VALID,-0.0169808,VALID,18.8799,VALID,32,VALID,1.09854,
2004-12-17, 02:29:00,VALID,916.92,VALID,0,VALID,98.4972,VALID,0,VALID,18.8633,VALID,39,VALID,0.762195,
2004-12-17, 02:30:01,VALID,916.918,VALID,0,VALID,98.6905,VALID,0,VALID,18.8668,VALID,56,VALID,0.997142,
2004-12-17, 02:31:01,VALID,916.899,VALID,0,VALID,98.5595,VALID,0.0339617,VALID,18.8892,VALID,51,VALID,0.867551,
2004-12-17, 02:32:01,VALID,916.89,VALID,0,VALID,98.2543,VALID,0,VALID,18.9125,VALID,56,VALID,0.687099,
2004-12-17, 02:33:00,VALID,916.886,VALID,0,VALID,98.2391,VALID,-0.0169808,VALID,18.9249,VALID,72,VALID,0.703303,
2004-12-17, 02:34:01,VALID,916.882,VALID,0,VALID,98.2009,VALID,-0.0169808,VALID,18.954,VALID,72,VALID,0.911754,
2004-12-17, 02:35:01,VALID,916.883,VALID,0,VALID,97.8767,VALID,0,VALID,18.983,VALID,87,VALID,0.911395,
2004-12-17, 02:36:00,VALID,916.876,VALID,0,VALID,97.6046,VALID,0,VALID,18.989,VALID,97,VALID,0.898251,
2004-12-17, 02:37:00,VALID,916.88,VALID,0,VALID,97.574,VALID,0,VALID,18.9992,VALID,103,VALID,1.00701,
2004-12-17, 02:38:00,VALID,916.882,VALID,0,VALID,97.4532,VALID,-0.0339617,VALID,19.0116,VALID,101,VALID,0.967685,
2004-12-17, 02:39:00,VALID,916.866,VALID,0,VALID,97.3935,VALID,-0.0169808,VALID,19.025,VALID,106,VALID,1.02131,
2004-12-17, 02:40:01,VALID,916.838,VALID,0,VALID,97.2561,VALID,0,VALID,19.064,VALID,103,VALID,0.954799,
2004-12-17, 02:41:01,VALID,916.827,VALID,0,VALID,96.9916,VALID,0,VALID,19.1224,VALID,99,VALID,1.05146,
2004-12-17, 02:42:01,VALID,916.787,VALID,0,VALID,96.7627,VALID,0,VALID,19.1671,VALID,107,VALID,1.18045,
2004-12-17, 02:43:01,VALID,916.768,VALID,0,VALID,96.5084,VALID,-0.0509425,VALID,19.2155,VALID,107,VALID,0.957541,
2004-12-17, 02:44:01,VALID,916.743,VALID,0,VALID,96.1931,VALID,-0.0339617,VALID,19.2637,VALID,105,VALID,1.0033,
2004-12-17, 02:45:01,VALID,916.719,VALID,0,VALID,95.9362,VALID,0,VALID,19.2896,VALID,108,VALID,0.793636,
2004-12-17, 02:46:01,VALID,916.697,VALID,0,VALID,95.8803,VALID,-0.0169808,VALID,19.3067,VALID,111,VALID,0.97476,
2004-12-17, 02:47:00,VALID,916.684,VALID,0,VALID,95.7696,VALID,-0.0169808,VALID,19.3159,VALID,115,VALID,1.00242,
2004-12-17, 02:48:01,VALID,916.662,VALID,0,VALID,95.1376,VALID,0,VALID,19.2863,VALID,67,VALID,0.591442,
2004-12-17, 02:49:01,VALID,916.651,VALID,0,VALID,94.9202,VALID,-0.0679233,VALID,19.1929,VALID,53,VALID,0.674716,
2004-12-17, 02:50:01,VALID,916.629,VALID,0,VALID,96.1511,VALID,-0.0169808,VALID,19.148,VALID,87,VALID,0.756392,
2004-12-17, 02:51:00,VALID,916.626,VALID,0,VALID,96.3622,VALID,-0.0169808,VALID,19.1517,VALID,88,VALID,0.858994,
2004-12-17, 02:52:01,VALID,916.623,VALID,0,VALID,96.4474,VALID,-0.0169808,VALID,19.1609,VALID,107,VALID,0.765816,
2004-12-17, 02:53:00,VALID,916.633,VALID,0,VALID,96.3571,VALID,0,VALID,19.1475,VALID,107,VALID,0.710029,
2004-12-17, 02:54:01,VALID,916.621,VALID,0,VALID,96.4016,VALID,0,VALID,19.1279,VALID,117,VALID,0.808061,
2004-12-17, 02:55:01,VALID,916.615,VALID,0,VALID,96.5567,VALID,-0.0339617,VALID,19.1251,VALID,119,VALID,0.88681,
2004-12-17, 02:56:01,VALID,916.615,VALID,0,VALID,96.4715,VALID,0,VALID,19.1087,VALID,126,VALID,0.6875,
2004-12-17, 02:57:00,VALID,916.618,VALID,0,VALID,96.5199,VALID,0,VALID,19.1187,VALID,144,VALID,0.606831,
2004-12-17, 02:58:00,VALID,916.625,VALID,0,VALID,96.4957,VALID,0,VALID,19.108,VALID,150,VALID,0.734028,
2004-12-17, 02:59:01,VALID,916.637,VALID,0,VALID,96.4792,VALID,0,VALID,19.1219,VALID,145,VALID,0.890439,
2004-12-17, 03:00:01,VALID,916.616,VALID,0,VALID,96.4448,VALID,-0.0169808,VALID,19.1286,VALID,142,VALID,0.793527,
2004-12-17, 03:01:01,VALID,916.604,VALID,0,VALID,96.305,VALID,-0.0509425,VALID,19.1318,VALID,137,VALID,0.820508,
2004-12-17, 03:02:00,VALID,916.584,VALID,0,VALID,96.38,VALID,0,VALID,19.1224,VALID,128,VALID,0.807478,
2004-12-17, 03:03:01,VALID,916.559,VALID,0,VALID,96.3978,VALID,0,VALID,19.0986,VALID,129,VALID,0.930246,
2004-12-17, 03:04:01,VALID,916.53,VALID,0,VALID,96.6394,VALID,0,VALID,19.1189,VALID,129,VALID,0.895952,
2004-12-17, 03:05:01,VALID,916.512,VALID,0,VALID,96.7755,VALID,-0.0169808,VALID,19.0958,VALID,129,VALID,0.723633,
2004-12-17, 03:06:01,VALID,916.49,VALID,0,VALID,96.7449,VALID,-0.0339617,VALID,19.0866,VALID,129,VALID,0.756037,
2004-12-17, 03:07:01,VALID,916.492,VALID,0,VALID,96.8581,VALID,0,VALID,19.0568,VALID,123,VALID,0.758903,
2004-12-17, 03:08:01,VALID,916.486,VALID,0,VALID,96.9357,VALID,-0.0169808,VALID,19.0412,VALID,120,VALID,0.574491,
2004-12-17, 03:09:01,VALID,916.491,VALID,0,VALID,97.1366,VALID,-0.0169808,VALID,19.0243,VALID,123,VALID,0.636719,
2004-12-17, 03:10:01,VALID,916.491,VALID,0,VALID,97.251,VALID,0,VALID,19.0374,VALID,147,VALID,0.89826,
2004-12-17, 03:11:01,VALID,916.506,VALID,0,VALID,97.2167,VALID,-0.0169808,VALID,19.0575,VALID,159,VALID,1.06504,
2004-12-17, 03:12:01,VALID,916.506,VALID,0,VALID,97.3248,VALID,-0.0169808,VALID,19.0504,VALID,151,VALID,1.19922,
2004-12-17, 03:13:01,VALID,916.507,VALID,0,VALID,97.2065,VALID,0.0169808,VALID,19.0638,VALID,160,VALID,0.960405,
2004-12-17, 03:14:01,VALID,916.503,VALID,0,VALID,97.218,VALID,0,VALID,19.0471,VALID,156,VALID,1.16254,
2004-12-17, 03:15:01,VALID,916.497,VALID,0,VALID,97.3261,VALID,0,VALID,19.0508,VALID,160,VALID,1.11793,
2004-12-17, 03:16:01,VALID,916.491,VALID,0,VALID,97.3795,VALID,-0.0339617,VALID,19.0409,VALID,150,VALID,0.907703,
2004-12-17, 03:17:01,VALID,916.478,VALID,0,VALID,97.3947,VALID,0,VALID,19.0178,VALID,156,VALID,1.01641,
2004-12-17, 03:18:01,VALID,916.476,VALID,0,VALID,97.471,VALID,0,VALID,19.0181,VALID,165,VALID,1.10437,
2004-12-17, 03:19:01,VALID,916.457,VALID,0,VALID,97.5359,VALID,0,VALID,19.0444,VALID,177,VALID,0.765092,
2004-12-17, 03:20:01,VALID,916.457,VALID,0,VALID,97.3973,VALID,-0.0169808,VALID,19.0638,VALID,145,VALID,0.67934,
2004-12-17, 03:21:01,VALID,916.451,VALID,0,VALID,97.3337,VALID,0,VALID,19.0764,VALID,163,VALID,0.813616,
2004-12-17, 03:22:01,VALID,916.42,VALID,0,VALID,97.2472,VALID,-0.0339617,VALID,19.0866,VALID,163,VALID,0.779978,
2004-12-17, 03:23:01,VALID,916.402,VALID,0,VALID,97.1417,VALID,-0.0339617,VALID,19.0965,VALID,187,VALID,0.595312,
2004-12-17, 03:24:01,VALID,916.376,VALID,0,VALID,97.0145,VALID,0,VALID,19.0834,VALID,177,VALID,0.311285,
2004-12-17, 03:25:01,VALID,916.363,VALID,0,VALID,96.9586,VALID,-0.0339617,VALID,19.0541,VALID,164,VALID,0.498728,
2004-12-17, 03:26:01,VALID,916.325,VALID,0,VALID,96.9688,VALID,-0.0169808,VALID,19.0183,VALID,163,VALID,0.470567,
2004-12-17, 03:27:01,VALID,916.308,VALID,0,VALID,97.1964,VALID,0,VALID,18.99,VALID,175,VALID,0.931743,
2004-12-17, 03:28:01,VALID,916.302,VALID,0,VALID,97.3121,VALID,0,VALID,18.9505,VALID,172,VALID,1.02153,
2004-12-17, 03:29:01,VALID,916.297,VALID,0,VALID,97.4418,VALID,-0.0339617,VALID,18.9152,VALID,166,VALID,1.06927,
2004-12-17, 03:30:00,VALID,916.284,VALID,0,VALID,97.6363,VALID,0,VALID,18.8993,VALID,163,VALID,0.612749,
2004-12-17, 03:31:00,VALID,916.269,VALID,0,VALID,97.7063,VALID,-0.0339617,VALID,18.8571,VALID,158,VALID,0.735431,
2004-12-17, 03:32:00,VALID,916.261,VALID,0,VALID,97.7889,VALID,-0.0169808,VALID,18.841,VALID,154,VALID,0.732422,
2004-12-17, 03:33:00,VALID,916.251,VALID,0,VALID,97.9479,VALID,-0.0679233,VALID,18.8357,VALID,146,VALID,0.758213,
2004-12-17, 03:34:00,VALID,916.267,VALID,0,VALID,98.0267,VALID,-0.0509425,VALID,18.8359,VALID,150,VALID,0.628299,
2004-12-17, 03:35:00,VALID,916.278,VALID,0,VALID,98.089,VALID,-0.101885,VALID,18.8458,VALID,151,VALID,1.04865,
2004-12-17, 03:36:00,VALID,916.307,VALID,0,VALID,98.131,VALID,-0.101885,VALID,18.8558,VALID,149,VALID,1.33041,